Location: Cran-Gévrier
(45.9039°N, 6.1012°E)
Time: 10:48:19
(UTC+00:00)

Tiangong - Visible Passes

Search period start: 20 April 2024 00:00
Search period end: 30 April 2024 00:00
Orbit: 371 x 379 km, 41.5° (Epoch: 19 April)

Date Brightness Start Highest point End Pass type
(mag) Time Alt. Az. Time Alt. Az. Time Alt. Az.
20 Apr -1.1 19:25:56 10° SW 19:28:40 29° S 19:30:24 17° ESE visible
20 Apr 0.7 21:02:07 10° WSW 21:02:26 12° WSW 21:02:26 12° WSW visible
21 Apr -1.5 19:59:21 10° WSW 20:02:13 35° S 20:02:40 33° SSE visible
22 Apr -0.6 20:32:55 10° WSW 20:34:45 25° SW 20:34:45 25° SW visible
23 Apr -1.3 19:29:58 10° WSW 19:32:48 34° S 19:34:43 17° SE visible
24 Apr -0.8 20:03:28 10° WSW 20:06:04 25° SSW 20:06:34 23° S visible
25 Apr 0.4 20:37:30 10° WSW 20:38:20 12° SW 20:38:20 12° SW visible
26 Apr -0.3 19:33:47 10° WSW 19:36:07 20° SSW 19:38:03 12° SSE visible
